Regional Weather Roundup
Issued by NWS Sterling, VA

Home | Current Version | Previous Version | Text Only | Print | Product List | Glossary On
Versions: 1 2 3 4 5 6 7 8 9 10 11 12 13 14 15 16 17 18 19 20 21 22 23 24 25 26 27 28 29 30 31 32 33 34 35 36 37 38 39 40 41 42 43 44 45 46 47 48 49 50
000
ASUS41 KLWX 182010
RWRLWX

REGIONAL WEATHER ROUNDUP
NATIONAL WEATHER SERVICE BALTIMORE MD/WASHINGTON DC
300 PM EST WED JAN 18 2017

Note: "FAIR" indicates few or no clouds below 12,000 feet
with no significant weather and/or obstructions to visibility.
 TC=TEMPERATURE CELSIUS

 * =Non NWS site. Station does not report precipitation (e.g. rain,
    snow, etc.), thunder, or fog.

DCZ001-MDZ009-015-VAZ040>042-051-053>054-182100-
WASHINGTON METRO

CITY           SKY/WX    TMP DP  RH WIND       PRES   REMARKS
WASHINGTON NAT PTSUNNY   59  40  49 N17G23    29.96R
DULLES         PTSUNNY   54  37  52 NW14      29.97R
ANDREWS AFB    MOSUNNY   55  39  54 N16       29.94R
FT BELVOIR     MOSUNNY   56  37  48 NW17G24   29.96R
QUANTICO       PTSUNNY   59  37  44 N21G29    29.97R
COLLEGE PARK*  MOSUNNY   55  36  47 W12G18    29.96S
LEESBURG*      CLOUDY    55  43  62 NW16      29.99R
MANASSAS*      PTSUNNY  N/A N/A N/A NW12G23   29.98R
GAITHERSBURG*  CLOUDY    52  37  58 NW12G18   30.00S

$$

MDZ006>007-011-014-182100-
BALTIMORE METRO

CITY           SKY/WX    TMP DP  RH WIND       PRES   REMARKS
BWI AIRPORT    MOSUNNY   55  41  59 NW12      29.94R
MD SCIENCE CTR   N/A     56  38  50 MISG      29.95R
MARTIN STATE   PTSUNNY   55  45  67 NW16G24   29.96R
ANNAPOLIS      CLOUDY    54  40  59 NW12      29.94R
FORT MEADE*    PTSUNNY   55  37  50 W14G21    29.98R

$$

MDZ012-015-019>023-182100-
MARYLAND EASTERN SHORE

CITY           SKY/WX    TMP DP  RH WIND       PRES   REMARKS
OCEAN CITY     CLOUDY    51  46  83 N7        29.94R
SALISBURY      CLOUDY    53  45  74 NW10      29.94R
BAY BRIDGE AP* CLOUDY    50  41  71 NW8       29.95R
CAMBRIDGE*     PTSUNNY   54  41  62 NW8       29.94R

$$

MDZ017>025-182100-
SOUTHERN MARYLAND

CITY           SKY/WX    TMP DP  RH WIND       PRES   REMARKS
PATUXENT RIVER PTSUNNY   57  41  55 N10       29.94R
ST INIGOES     CLOUDY    53  43  68 E5        29.94R
LEONARDTOWN*   PTSUNNY   55  37  50 NW6       29.96R

$$

MDZ003>005-182100-
NORTH CENTRAL MARYLAND

CITY           SKY/WX    TMP DP  RH WIND       PRES   REMARKS
FREDERICK*     NOT AVBL
HAGERSTOWN APT PTSUNNY   50  36  58 NW16G25   29.98R
WESTMINSTER*   CLOUDY    50  39  66 NW12      29.96R

$$

MDZ501>502-182100-
WESTERN MARYLAND

CITY           SKY/WX    TMP DP  RH WIND       PRES   REMARKS
OAKLAND*         N/A     32  32 100 W15G24    30.01S FOG     WCI  22
CUMBERLAND*    CLOUDY    46  34  61 W10G22    30.09R

$$

VAZ025>031-182100-
SHENANDOAH VALLEY

CITY           SKY/WX    TMP DP  RH WIND       PRES   REMARKS
WINCHESTER*    CLOUDY    50  36  57 NW20      29.99R
FRONT ROYAL*   PTCLDY    54  36  50 W7G16     29.97R
LURAY*         PTCLDY    55  37  50 W3        29.98S
NEW MARKET*    PTCLDY    55  33  43 NW7       29.98R
STAUNTON*      SUNNY     55  34  45 NW10      30.00S
WAYNESBORO*    CLEAR     55  33  43 NW7       29.98S

$$

WVZ021-048>050-054>055-182100-
EASTERN WEST VIRGINIA PANHANDLE

CITY           SKY/WX    TMP DP  RH WIND       PRES   REMARKS
MARTINSBURG    CLOUDY    52  36  54 W17G25    29.99R
PETERSBURG*    MOSUNNY   52  37  56 W16       30.04R

$$

VAZ036>039-050-182100-
CENTRAL FOOTHILLS

CITY           SKY/WX    TMP DP  RH WIND       PRES   REMARKS
CHARLOTTESVILL SUNNY     60  34  37 NW9       29.96S
CULPEPER*      CLOUDY    60  37  43 NW5       29.98R
ORANGE*          N/A     61  34  36 W12       29.98R
GORDONSVILLE*  CLEAR     59  36  41 NW6G16    29.95S
WARRENTON*     MOSUNNY   60  32  35 NW14      29.97R

$$

VAZ055>057-182100-
NORTH AND CENTRAL PIEDMONT

CITY           SKY/WX    TMP DP  RH WIND       PRES   REMARKS
FREDERICKSBRG* MOSUNNY   60  39  44 N10G24    29.94R
STAFFORD*      SUNNY     58  37  46 NW15      30.00R

$$

NCZ024-NYZ072-PAZ021-071-VAZ022-071-182100-
OTHER REGIONAL OBSERVATIONS

CITY           SKY/WX    TMP DP  RH WIND       PRES   REMARKS
NEW YORK CITY  CLOUDY    40  37  89 N7        29.98R
PHILADELPHIA   CLOUDY    48  41  76 N9        29.95R
PITTSBURGH     CLOUDY    39  35  86 W9        30.08R
ROANOKE        MOSUNNY   56  34  43 NW15      30.04R
RICHMOND       MOSUNNY   64  38  38 N15       29.93R
RALEIGH        MOSUNNY   67  35  30 NW9G18    29.97R

$$

ANZ530>537-182100-
MARINE OBSERVATIONS

STATION/POSITION TIME  TEMP    WIND        PRES
                       AIR SEA DIR/SP/G
                 (UTC) (F)     (DEG/KT/KT) (MB)
THOMAS PT LIGHT  2000   54 39  310/ 18/ 21   N/A
BALT KEY BRIDGE  1948   53     280/ 15/ 18 1013.8R
COVE POINT       1948   48      20/ 13/ 15 1014.4R
LEWISETTA        1948   46 44  110/  7/  8 1013.8R
SOLOMONS ISLAND  1942   56 42  330/ 11/ 16   N/A
PINEY POINT      1948          240/  3/  4   N/A

$$




USA.gov is the U.S. government's official web portal to all federal, state and local government web resources and services.